Regional Weather Roundup
Issued by NWS Northern Indiana

Home | Current Version | Previous Version | Graphics & Text | Print | Product List | Glossary On
Versions: 1 2 3 4 5 6 7 8 9 10 11 12 13 14 15 16 17 18 19 20 21 22 23 24 25 26 27 28 29 30 31 32 33 34 35 36 37 38 39 40 41 42 43 44 45 46 47 48 49 50
000
ASUS43 KIWX 222310
RWRIWX

KIWX WEATHER ROUNDUP
NATIONAL WEATHER SERVICE NORTHERN INDIANA
700 PM EDT SAT APR 22 2017

NOTE: "FAIR" INDICATES FEW OR NO CLOUDS BELOW 12,000 FEET WITH NO
SIGNIFICANT WEATHER AND/OR OBSTRUCTIONS TO VISIBILITY.

* THESE STATIONS ARE NOT UNDER NWS QUALITY CONTROL. THEY ALSO MAY NOT
  REPORT WEATHER SUCH AS PRECIPITATION OR FOG.

INZ001>027-230000-
NORTHERN INDIANA

CITY           SKY/WX    TMP DP  RH WIND       PRES   REMARKS
GARY*          MOSUNNY   52  30  43 N8        30.17S
VALPARAISO     SUNNY     53  29  39 N14       30.14R
MICHIGAN CITY* SUNNY     46  32  57 N9        30.17S
LAPORTE*       SUNNY     50  30  45 N17       30.14S
KNOX*          CLOUDY    55   5  13 N20       30.11R
SOUTH BEND     SUNNY     56  34  43 N15       30.13R
GOSHEN         SUNNY     60  29  30 NE8       30.10F
MONTICELLO*    MOSUNNY   61  30  31 NE12      30.08S
LOGANSPORT*    MOSUNNY   59  32  36 NE6       30.10S
ROCHESTER*     SUNNY     61  28  29 E9        30.10R
WARSAW*        SUNNY     61  32  33 NE10      30.09S
ANGOLA*        SUNNY     59  48  67 NE9       30.10S
FORT WAYNE     PTSUNNY   57  35  43 NE14      30.10S
HUNTINGTON*    MOSUNNY   56  32  40 E9        30.10R
PERU/GRISSOM   MOSUNNY   58  35  41 NE12      30.08R
MARION*        MOSUNNY   54  36  50 NE15      30.09F

$$
INZ028>050-230000-
CENTRAL INDIANA

CITY           SKY/WX    TMP DP  RH WIND       PRES   REMARKS
LAFAYETTE      MOSUNNY   59  36  42 NE13      30.08S
KOKOMO*        MOSUNNY   56  35  45 NE13      30.09F
MUNCIE*        SUNNY     54  29  38 NE17      30.07S
INDIANAPOLIS   CLOUDY    57  35  43 NE17      30.04F

$$
MIZ043>046-050>051-056>058-064>065-071>073-077>080-230000-
SOUTHWEST LOWER MICHIGAN

CITY           SKY/WX    TMP DP  RH WIND       PRES   REMARKS
BATTLE CREEK   SUNNY     60  32  34 N9        30.13R
BENTON HARBOR  SUNNY     50  29  44 N9        30.15S
COLDWATER*     SUNNY     58  31  34 N8        30.11S
HILLSDALE*     CLOUDY    57  32  38 N6        30.10S
HOLLAND        SUNNY     55  26  32 NW10      30.15S
GRAND RAPIDS   MOSUNNY   63  28  26 VRB3      30.12S
KALAMAZOO      SUNNY     61  26  26 NE8       30.13S
STURGIS*       SUNNY     59  30  33 E10       30.11R
THREE RIVERS*  FAIR      59  30  32 N7        30.12R

$$
OHZ001>008-015>018-024>025-230000-
NORTHWEST OHIO

CITY           SKY/WX    TMP DP  RH WIND       PRES   REMARKS
WAUSEON*       FAIR      57  34  41 E8        30.10S
DEFIANCE       MOSUNNY   56  35  45 E8        30.11R
FINDLAY        CLOUDY    53  28  38 NE16      30.09S
TOLEDO EXPRESS CLOUDY    54  34  46 E10       30.10S
TOLEDO METCALF CLOUDY    54  34  46 E8        30.12S
LIMA           PTSUNNY   52  32  46 NE17G24   30.08S

$$
AND FOR LAKE MICHIGAN COASTAL AND OPEN LAKE BUOY OBSERVATIONS

STATION/POSITION TEMP    WIND        PRES    VSBY  WAVE
                 AIR SEA DIR/SP/G                  HT/PER
                 (F)     (DEG/KT/KT) (MB)    (MI)  (FT/S)
CALUMET HARBOR    48     330/ 14/ 18 1020.8F
MICHIGAN CITY     44      10/  9/ 10   N/A
BURNS HARBOR      45      20/  9/ 11 1021.7F
4 MI NW BRIDGMAN  46 48   40/ 12/ 16 1022.1          3/ 4

$$
&&




USA.gov is the U.S. government's official web portal to all federal, state and local government web resources and services.